Wind_Speed
45 44 42 41 39 37 36 34 32 31 30 28 27 26 25 24 24 23 23 22 22 22 22 23 24 24 25 26 28 29 30 31 33 34 35 36 37 38 40 41 42 43 44
47 45 44 42 41 39 37 35 34 32 31 30 28 27 26 25 25 24 23 23 23 23 24 24 25 26 27 28 29 30 31 32 34 35 37 38 39 40 41 42 43 44 45
48 47 45 43 42 40 38 37 35 33 32 30 29 28 27 26 25 25 24 24 24 24 25 26 26 27 28 29 30 31 32 34 35 37 38 39 40 41 42 43 45 46 46
49 47 46 44 43 42 40 38 36 35 33 31 30 29 28 28 27 26 25 25 25 25 26 26 27 28 29 30 31 32 34 35 37 38 39 40 41 42 44 45 46 47 48
50 49 47 45 44 43 41 39 37 36 34 32 31 30 29 28 27 27 26 26 26 26 27 27 28 29 30 31 33 34 36 37 38 39 40 41 42 43 45 46 47 49 49
52 51 48 46 45 44 42 40 39 37 35 33 32 31 30 29 28 28 27 27 27 27 28 28 29 30 31 33 34 35 37 38 39 40 41 42 43 45 46 48 49 50 51
52 51 49 47 46 44 43 41 40 39 37 35 33 32 31 30 29 29 28 28 28 28 29 29 30 31 33 34 35 36 38 39 40 41 42 44 45 46 48 49 50 52 53
51 50 50 48 46 45 43 41 40 39 38 37 35 33 32 31 31 30 30 29 29 29 30 31 32 33 34 35 36 38 39 40 41 42 44 45 46 48 49 51 52 53 54
52 50 50 49 47 46 44 42 40 39 38 37 36 34 33 32 32 31 31 31 31 31 31 31 33 34 35 36 37 39 40 41 42 43 44 46 47 49 51 52 54 55 56
52 51 51 49 48 47 45 43 41 39 39 38 37 36 34 33 33 32 32 32 32 32 32 32 34 35 36 37 38 39 40 42 43 44 45 47 48 50 52 53 55 56 58
53 52 51 50 49 48 46 45 43 41 39 39 38 37 35 34 34 33 33 33 33 33 33 34 35 36 36 38 39 40 41 43 44 45 46 48 49 51 53 55 56 58 59
54 53 51 50 49 48 47 46 45 42 40 39 38 37 36 35 34 34 34 34 34 34 34 35 36 37 38 39 40 41 42 43 44 46 47 49 50 52 54 55 57 59 60
54 52 51 50 49 48 48 46 45 44 41 39 38 37 36 35 35 35 35 35 35 35 35 36 37 38 38 39 40 41 43 44 45 47 48 50 51 53 54 56 58 60 61
52 52 51 50 49 47 47 46 45 43 42 41 40 38 37 36 35 35 35 35 35 35 36 37 37 38 39 40 41 42 44 45 46 47 49 50 52 53 55 57 59 60 61
50 51 51 49 50 48 47 46 44 43 43 42 40 38 37 36 35 36 35 35 36 36 36 37 37 38 39 40 41 43 44 45 46 47 49 50 52 54 56 58 60 61 61
49 50 50 51 50 48 47 46 45 43 42 41 40 38 37 37 36 36 36 36 36 37 37 37 38 39 40 41 42 43 44 45 47 48 49 51 53 55 57 59 60 61 61
48 48 49 49 48 47 47 46 44 43 42 41 39 38 37 37 37 36 36 37 37 37 37 37 38 39 40 41 41 43 44 45 47 48 50 52 54 56 58 59 60 61 61
50 49 48 47 46 45 45 44 43 42 41 40 39 38 38 38 37 36 37 37 36 36 37 38 38 38 39 40 42 43 44 45 46 48 51 52 54 57 58 59 60 61 62
49 50 49 47 45 44 44 44 43 42 41 39 39 38 38 37 37 36 36 36 36 36 37 37 38 38 40 41 42 43 44 45 47 49 51 53 55 57 58 59 61 62 62
49 49 49 48 46 44 44 43 43 42 41 40 39 38 38 37 37 36 36 36 36 36 37 37 37 38 40 41 42 42 44 46 47 50 52 54 56 57 58 60 61 62 61
48 47 48 49 47 45 44 43 42 42 41 39 39 38 38 37 37 36 35 35 36 36 36 37 38 38 39 40 41 42 44 46 48 50 52 54 56 57 58 60 61 62 61
50 46 47 47 47 46 44 43 42 41 39 39 39 38 37 36 35 34 34 35 36 36 36 37 37 38 39 39 41 43 45 46 48 50 52 54 55 57 59 61 62 62 62
50 47 45 46 46 46 45 43 42 40 38 38 38 37 36 34 34 34 35 36 36 35 36 37 37 38 39 40 42 44 46 47 49 51 52 53 55 58 60 62 62 62 61
50 47 45 44 44 44 44 43 42 40 38 38 38 37 36 35 34 34 34 35 35 35 35 36 36 38 39 40 42 44 45 47 50 51 52 53 55 58 61 61 61 61 59
50 48 45 43 42 43 43 42 42 40 37 36 36 36 35 35 34 34 34 33 33 34 34 34 36 38 39 41 42 44 46 48 49 50 51 53 55 58 60 60 60 58 56
49 48 45 42 41 42 42 41 40 40 38 37 36 35 34 34 34 33 33 32 32 33 33 34 36 37 39 40 42 43 45 47 48 49 50 53 56 58 58 58 57 54 51
Wind_Direction
239 239 239 240 241 241 242 243 245 248 250 253 257 261 266 270 274 277 281 284 287 291 295 298 301 304 306 308 310 312 314 315 317 318 319 320 320 320 321 321 321 321 321
238 238 239 239 240 241 241 242 244 246 249 251 255 260 264 269 273 276 279 282 286 290 294 297 300 303 305 307 309 311 313 314 316 318 319 319 319 320 320 320 320 321 320
237 238 238 239 239 240 240 242 243 245 248 251 254 258 263 267 271 275 278 282 286 290 293 296 300 303 304 306 308 310 312 314 316 317 318 319 319 319 319 320 320 320 320
236 237 237 238 239 239 240 241 243 244 246 250 253 257 261 265 270 274 277 281 285 289 292 296 299 302 304 306 308 310 312 313 315 316 317 318 318 318 319 319 319 319 319
234 235 236 237 238 239 240 241 243 244 246 249 253 257 260 264 268 273 276 280 285 288 292 295 299 302 304 306 308 309 311 312 314 315 316 317 317 318 318 319 319 319 319
233 233 234 236 237 238 240 241 243 244 245 248 252 256 260 264 267 272 275 279 284 288 291 295 298 301 303 305 308 309 310 312 313 314 315 316 317 317 318 318 319 319 318
231 231 233 235 237 239 240 241 242 244 246 248 251 255 259 263 267 271 274 278 283 287 290 294 297 300 302 305 306 308 309 311 312 313 315 316 316 317 318 318 319 319 318
230 231 232 233 236 238 239 239 241 243 246 248 251 254 259 262 267 270 274 277 281 286 290 294 297 299 302 304 306 307 309 310 312 313 314 315 316 317 318 318 318 319 319
229 230 232 232 235 237 238 238 240 243 245 248 251 254 258 263 266 269 273 277 281 285 289 293 297 299 302 304 305 307 308 310 311 312 314 315 315 316 317 318 318 319 319
229 231 231 232 235 236 237 238 240 242 245 248 251 254 258 262 265 268 272 277 280 285 289 293 297 299 302 303 305 307 308 310 311 312 313 314 315 316 317 318 318 319 319
229 230 232 232 234 235 237 238 240 242 245 248 252 254 258 261 265 268 271 275 279 284 288 293 296 299 301 303 305 307 309 310 311 312 313 314 315 316 317 317 318 319 320
228 229 231 231 232 234 237 238 240 242 245 248 251 255 258 261 264 268 271 275 279 284 288 292 295 298 300 302 304 306 309 311 311 312 313 314 315 316 316 317 319 319 320
227 227 230 231 231 233 236 238 240 242 245 248 252 255 258 261 264 268 271 275 280 284 288 292 295 297 299 302 304 306 308 310 311 313 314 315 315 316 317 318 319 319 320
226 227 229 231 231 234 235 237 239 241 245 249 252 255 258 261 265 268 271 276 280 284 287 291 294 296 299 302 304 307 308 310 311 313 314 315 315 317 317 318 319 320 320
226 228 228 229 231 233 235 236 238 241 245 248 251 254 258 261 265 268 272 276 281 284 287 290 293 296 299 302 305 307 309 310 312 313 314 315 316 317 318 319 319 320 320
226 227 227 229 231 233 236 236 238 241 245 248 251 254 257 261 264 269 273 277 281 285 287 290 293 297 299 302 305 307 309 311 312 314 314 315 316 318 319 319 320 320 321
225 226 226 227 230 232 235 236 238 240 244 247 251 255 258 261 265 269 274 278 281 284 287 290 293 296 299 302 305 307 309 311 312 314 315 316 317 318 319 320 321 321 321
225 225 226 227 230 233 234 236 238 240 243 247 251 254 257 261 265 270 274 278 281 284 287 290 293 296 299 302 305 307 309 311 313 314 315 316 318 319 320 321 321 321 321
225 226 227 228 230 233 235 236 238 240 243 248 252 255 257 261 265 270 274 277 280 284 287 290 293 296 299 302 305 307 310 312 313 315 316 317 318 320 321 322 322 322 322
224 226 228 228 230 233 234 235 236 240 244 248 252 254 257 261 265 270 274 278 281 284 287 290 292 296 299 302 305 308 310 313 314 315 316 318 319 320 322 322 322 322 322
224 226 227 229 231 233 234 236 237 240 244 249 251 254 257 261 265 269 273 277 281 284 287 289 292 295 299 302 305 308 311 313 315 316 317 318 319 321 322 323 323 323 323
224 225 227 229 232 233 234 236 237 240 244 248 251 255 257 260 265 269 272 277 281 284 287 290 292 295 299 303 305 308 311 313 315 316 317 319 320 322 323 323 323 323 323
224 225 227 230 231 233 235 236 238 240 244 249 252 253 256 260 265 269 272 277 280 284 287 290 293 296 300 303 306 309 312 314 315 317 318 320 321 322 323 323 324 324 324
224 226 228 230 231 234 235 236 238 240 244 249 251 254 257 261 266 270 274 277 280 283 287 290 294 297 300 304 307 310 312 314 316 318 319 321 322 323 324 324 325 325 324
225 225 227 229 232 233 234 236 238 240 244 248 251 255 258 262 265 269 273 276 278 282 286 290 295 298 301 305 308 310 313 315 317 318 320 321 323 324 324 325 325 325 326
225 226 226 228 230 232 234 236 237 240 243 247 251 254 257 261 264 267 271 275 278 282 287 291 295 299 303 306 309 312 314 316 317 318 320 322 324 325 325 325 326 327 329
Height
5797 5801 5805 5809 5812 5815 5818 5821 5823 5826 5828 5829 5830 5831 5832 5832 5832 5832 5831 5830 5829 5828 5827 5825 5823 5821 5818 5816 5813 5810 5807 5803 5799 5795 5791 5786 5782 5777 5772 5767 5762 5757 5751
5789 5793 5797 5801 5805 5809 5812 5815 5817 5820 5822 5824 5825 5826 5827 5827 5827 5827 5827 5826 5825 5824 5823 5821 5819 5816 5814 5811 5808 5805 5802 5798 5794 5790 5785 5781 5776 5771 5766 5761 5755 5750 5744
5780 5785 5790 5794 5798 5801 5805 5808 5811 5814 5816 5818 5820 5821 5822 5822 5822 5822 5822 5821 5821 5819 5818 5816 5814 5812 5809 5806 5803 5800 5796 5792 5788 5784 5779 5774 5770 5764 5759 5754 5748 5742 5736
5771 5776 5781 5786 5790 5794 5798 5802 5805 5807 5810 5812 5814 5815 5816 5817 5817 5817 5817 5817 5816 5814 5813 5811 5809 5806 5804 5801 5798 5794 5791 5787 5782 5778 5773 5768 5763 5758 5752 5746 5740 5734 5728
5762 5768 5773 5778 5782 5786 5791 5794 5798 5801 5803 5806 5808 5809 5810 5811 5811 5812 5812 5811 5811 5809 5808 5806 5804 5801 5798 5795 5792 5788 5785 5780 5776 5771 5767 5761 5756 5750 5745 5739 5733 5726 5720
5752 5758 5764 5769 5774 5778 5783 5787 5791 5794 5797 5799 5801 5803 5804 5805 5806 5806 5806 5806 5805 5804 5802 5800 5798 5795 5793 5790 5786 5782 5778 5774 5770 5765 5760 5754 5749 5743 5737 5731 5725 5718 5711
5741 5749 5755 5761 5766 5771 5775 5779 5783 5787 5790 5792 5795 5796 5798 5799 5800 5800 5800 5800 5799 5798 5797 5795 5792 5790 5787 5784 5780 5776 5772 5767 5763 5758 5752 5747 5741 5735 5729 5723 5716 5709 5702
5732 5739 5746 5751 5757 5762 5767 5771 5775 5779 5782 5785 5788 5789 5791 5793 5794 5794 5794 5794 5793 5792 5790 5788 5786 5783 5780 5777 5773 5769 5765 5760 5755 5750 5745 5739 5733 5727 5721 5714 5707 5700 5693
5723 5730 5737 5742 5748 5753 5758 5763 5768 5772 5775 5778 5780 5783 5785 5787 5787 5787 5787 5787 5787 5786 5784 5782 5780 5777 5774 5770 5767 5762 5758 5753 5748 5743 5737 5732 5726 5719 5712 5705 5698 5691 5683
5713 5720 5727 5733 5739 5745 5750 5755 5760 5764 5767 5770 5773 5776 5778 5780 5781 5781 5781 5781 5780 5779 5778 5776 5773 5770 5767 5763 5760 5755 5751 5746 5741 5735 5730 5724 5717 5711 5704 5696 5689 5681 5672
5703 5711 5718 5724 5730 5736 5742 5747 5752 5756 5760 5763 5766 5768 5770 5772 5773 5774 5774 5774 5773 5772 5771 5769 5766 5763 5760 5756 5752 5748 5743 5738 5733 5728 5722 5716 5709 5702 5695 5687 5679 5671 5662
5693 5701 5708 5715 5721 5727 5733 5739 5743 5748 5752 5755 5758 5761 5763 5765 5766 5767 5767 5767 5766 5765 5764 5762 5759 5756 5753 5749 5745 5740 5736 5731 5726 5720 5714 5707 5700 5693 5686 5677 5669 5660 5651
5683 5691 5699 5706 5713 5719 5725 5730 5735 5740 5744 5748 5751 5753 5756 5757 5758 5759 5760 5759 5759 5758 5756 5754 5752 5749 5745 5742 5738 5733 5728 5723 5718 5712 5705 5699 5692 5684 5676 5668 5659 5650 5640
5674 5682 5689 5696 5703 5710 5716 5722 5727 5731 5736 5740 5743 5745 5748 5750 5751 5752 5752 5752 5752 5750 5749 5747 5744 5742 5738 5734 5730 5725 5720 5715 5710 5703 5697 5690 5683 5675 5667 5658 5649 5640 5630
5665 5673 5680 5687 5694 5701 5707 5713 5719 5723 5728 5732 5735 5737 5740 5742 5743 5744 5744 5744 5744 5743 5742 5739 5737 5734 5730 5727 5722 5718 5713 5707 5701 5695 5688 5681 5673 5665 5657 5648 5639 5629 5619
5656 5664 5671 5679 5686 5692 5699 5705 5710 5715 5719 5723 5726 5729 5732 5734 5735 5736 5736 5736 5736 5735 5734 5731 5729 5726 5722 5719 5714 5710 5705 5699 5693 5687 5680 5672 5664 5656 5647 5638 5628 5618 5608
5647 5655 5663 5670 5677 5684 5690 5696 5702 5706 5711 5715 5718 5721 5724 5726 5727 5728 5728 5728 5728 5727 5725 5723 5721 5718 5714 5710 5706 5702 5697 5691 5685 5678 5671 5663 5655 5647 5637 5628 5618 5607 5597
5639 5647 5654 5662 5668 5675 5681 5687 5693 5698 5703 5707 5710 5713 5716 5717 5719 5720 5720 5720 5719 5718 5717 5716 5713 5710 5706 5703 5698 5694 5688 5683 5676 5669 5662 5654 5646 5637 5627 5617 5607 5597 5586
5630 5638 5646 5653 5660 5667 5673 5679 5684 5689 5694 5698 5702 5705 5707 5709 5711 5712 5712 5712 5711 5710 5709 5708 5705 5702 5699 5695 5691 5686 5680 5674 5668 5660 5653 5645 5637 5627 5618 5608 5597 5586 5575
5622 5630 5637 5645 5652 5658 5664 5670 5676 5681 5685 5690 5693 5696 5699 5701 5703 5703 5704 5704 5703 5702 5701 5699 5697 5694 5691 5687 5682 5678 5672 5666 5659 5652 5643 5636 5627 5617 5608 5598 5588 5576 5565
5613 5621 5628 5636 5643 5650 5656 5662 5668 5672 5677 5681 5685 5688 5690 5692 5694 5695 5696 5696 5695 5694 5693 5691 5689 5686 5683 5679 5675 5670 5664 5658 5651 5643 5635 5626 5618 5608 5598 5588 5576 5565 5554
5604 5612 5619 5626 5634 5641 5648 5653 5659 5664 5668 5672 5676 5679 5682 5684 5686 5687 5687 5688 5687 5686 5685 5683 5681 5678 5675 5671 5666 5661 5656 5650 5644 5637 5627 5617 5608 5598 5588 5578 5567 5555 5544
5595 5603 5610 5618 5625 5633 5639 5644 5650 5655 5660 5664 5668 5671 5673 5676 5677 5679 5679 5679 5679 5678 5677 5675 5673 5670 5667 5663 5658 5653 5647 5640 5634 5626 5618 5608 5598 5588 5578 5567 5556 5545 5534
5585 5594 5601 5609 5616 5623 5629 5635 5641 5646 5651 5655 5659 5662 5665 5667 5669 5670 5671 5671 5671 5670 5669 5667 5665 5662 5658 5654 5649 5644 5638 5632 5624 5616 5608 5600 5590 5579 5568 5557 5545 5534 5523
5576 5584 5592 5600 5607 5614 5620 5627 5632 5638 5643 5647 5651 5654 5657 5659 5661 5662 5663 5663 5663 5662 5661 5659 5657 5653 5650 5645 5641 5635 5630 5623 5616 5608 5599 5591 5582 5571 5559 5547 5536 5525 5514
5567 5575 5583 5591 5599 5606 5612 5618 5624 5630 5635 5639 5643 5646 5649 5651 5653 5654 5655 5655 5655 5654 5653 5651 5649 5645 5641 5637 5632 5627 5621 5614 5607 5600 5591 5582 5572 5562 5552 5539 5527 5517 5506